Weather History for Atlantic City, NJ

Change the Weather History Date:

Thursday, January 3, 2013

  Actual Average Record
Temperature  
Mean Temperature 29 °F 34 °F  
Max Temperature 35 °F 42 °F 69 °F (2004)
Min Temperature 22 °F 25 °F -2 °F (1879)
Degree Days  
Heating Degree Days 36 32  
Month to date heating degree days 96 94  
Since 1 July heating degree days 1740 1863  
Cooling Degree Days 0 0  
Month to date cooling degree days 0 0  
Year to date cooling degree days 0 0  
Moisture  
Dew Point 15 °F    
Average Humidity 56    
Maximum Humidity 74    
Minimum Humidity 38    
Precipitation  
Precipitation 0.00 in 0.10 in 1.72 in (1944)
Month to date precipitation 0.00 0.31  
Year to date precipitation 0.00 0.31  
Snow  
Snow 0.00 in 0.20 in 0.40 in (1988)
Month to date snowfall 0.0 0.4  
Since 1 July snowfall 2.5 4.3  
Snow Depth 0.00 in    
Sea Level Pressure  
Sea Level Pressure 30.19 in    
Wind  
Wind Speed 6 mph (West)    
Max Wind Speed 14 mph    
Max Gust Speed 22 mph    
Visibility 10 miles    
Events      
T = Trace of Precipitation, MM = Missing Value Source: NWS Daily Summary

Daily Weather History Graph

Daily Weather History Graph

Search for Another Location

Airport:

Trip Planner

Search our weather history database for the weather conditions in past years. The results will help you decide how hot, cold, wet, or windy it might be!

Date:

Astronomy

Jan. 03, 2013 Rise Set
Actual Time 7:18 AM EST 4:47 PM EST
Civil Twilight 6:48 AM EST 5:17 PM EST
Nautical Twilight 6:15 AM EST 5:50 PM EST
Astronomical Twilight 5:42 AM EST 6:23 PM EST
Moon 11:18 PM EST (1/3) 10:30 AM EST (1/3)
Length of Visible Light 10h 28m
Length of Day
9h 28m
Waning Gibbous, 65% of the Moon is Illuminated
Jan 3
Waning Gibbous
Jan 4
Last Quarter
Jan 11
New
Jan 18
First Quarter
Jan 26
Full

Hourly Weather History & Observations

Time (EST) Temp. Windchill Dew Point Humidity Pressure Visibility Wind Dir Wind Speed Gust Speed Precip Events Conditions
12:54 AM 24.1 °F 17.0 °F 15.1 °F 69% 30.22 in 10.0 mi WNW 5.8 mph - N/A   Clear
1:54 AM 25.0 °F 19.3 °F 16.0 °F 69% 30.21 in 10.0 mi NW 4.6 mph - N/A   Clear
2:54 AM 25.0 °F 19.3 °F 16.0 °F 69% 30.22 in 10.0 mi WNW 4.6 mph - N/A   Clear
3:54 AM 26.1 °F 21.9 °F 16.0 °F 66% 30.22 in 10.0 mi West 3.5 mph - N/A   Clear
4:54 AM 25.0 °F - 16.0 °F 69% 30.20 in 10.0 mi Calm Calm - N/A   Clear
5:54 AM 24.1 °F - 16.0 °F 71% 30.20 in 10.0 mi Calm Calm - N/A   Clear
6:54 AM 23.0 °F 17.0 °F 15.1 °F 72% 30.22 in 10.0 mi WNW 4.6 mph - N/A   Clear
7:54 AM 23.0 °F - 15.1 °F 72% 30.23 in 10.0 mi Calm Calm - N/A   Clear
8:54 AM 25.0 °F 20.7 °F 16.0 °F 69% 30.23 in 10.0 mi West 3.5 mph - N/A   Clear
9:54 AM 28.9 °F 21.9 °F 15.1 °F 56% 30.23 in 10.0 mi West 6.9 mph - N/A   Clear
10:54 AM 30.0 °F 26.5 °F 15.1 °F 54% 30.21 in 10.0 mi WSW 3.5 mph - N/A   Clear
11:54 AM 33.1 °F 26.1 °F 14.0 °F 46% 30.19 in 10.0 mi WNW 8.1 mph - N/A   Clear
12:54 PM 33.1 °F 24.9 °F 12.0 °F 42% 30.15 in 10.0 mi West 10.4 mph - N/A   Clear
1:54 PM 34.0 °F 26.0 °F 10.0 °F 37% 30.14 in 10.0 mi WNW 10.4 mph - N/A   Clear
2:54 PM 34.0 °F 25.5 °F 10.9 °F 38% 30.13 in 10.0 mi West 11.5 mph - N/A   Clear
3:54 PM 34.0 °F 25.5 °F 12.0 °F 40% 30.14 in 10.0 mi West 11.5 mph - N/A   Clear
4:54 PM 32.0 °F 26.4 °F 12.9 °F 45% 30.14 in 10.0 mi West 5.8 mph - N/A   Clear
5:54 PM 30.0 °F 23.2 °F 14.0 °F 51% 30.17 in 10.0 mi West 6.9 mph - N/A   Clear
6:54 PM 30.0 °F 25.2 °F 15.1 °F 54% 30.17 in 10.0 mi WSW 4.6 mph - N/A   Clear
7:54 PM 28.9 °F 21.9 °F 16.0 °F 58% 30.17 in 10.0 mi WSW 6.9 mph - N/A   Clear
8:54 PM 28.9 °F 22.8 °F 17.1 °F 61% 30.16 in 10.0 mi WSW 5.8 mph - N/A   Clear
9:54 PM 28.0 °F 21.7 °F 18.0 °F 66% 30.16 in 10.0 mi WSW 5.8 mph - N/A   Clear
10:54 PM 28.9 °F 21.9 °F 19.0 °F 67% 30.16 in 10.0 mi WSW 6.9 mph - N/A   Clear
11:54 PM 28.9 °F 21.9 °F 19.9 °F 69% 30.16 in 10.0 mi WSW 6.9 mph - N/A   Clear